Regional Weather Roundup
Issued by NWS

Home | Current Version | Previous Version | Text Only | Print | Product List | Glossary Off
Versions: 1 2 3 4 5 6 7 8 9 10 11 12 13 14 15 16 17 18 19 20 21 22 23 24 25 26 27 28 29 30 31 32 33 34 35 36 37 38 39 40 41 42 43 44 45 46 47 48 49 50

815
ASUS44 KJAN 221010
RWRMS

MISSISSIPPI HOURLY WEATHER ROUNDUP
NATIONAL WEATHER SERVICE JACKSON MS
500 AM CDT TUE JUL 22 2014

NOTE: "FAIR: INDICATES FEW OR NO CLOUDS BELOW 12,000 FEET WITH NO
SIGNIFICANT WEATHER AND/OR OBSTRUCTIONS TO VISIBILITY.

MSZ001>002-007>008-010>013-018>021-025>028-034>036-221100-
NORTHWEST MISSISSIPPI

CITY           SKY/WX    TMP DP  RH WIND       PRES   REMARKS
CLARKSDALE     FAIR      68  68 100 CALM      30.07S
CLEVELAND      FAIR      68  68 100 CALM      30.05S
GREENWOOD      CLEAR     68  66  93 N3        30.05R FOG
GREENVILLE     CLEAR     68  67  96 NE3       30.04S
GRENADA        FAIR      66  64  94 CALM      30.06R
OLIVE BRANCH   CLEAR     68  68 100 CALM      30.08R
OXFORD         FAIR      66  64  94 CALM      30.08S FOG
TUNICA         SUNNY     68  64  88 CALM      30.08R
$$

MSZ003>006-009-014>017-022>024-029>033-037>039-221100-
NORTHEAST MISSISSIPPI

CITY           SKY/WX    TMP DP  RH WIND       PRES   REMARKS
BELMONT        FAIR      69  69  99 CALM      30.06R FOG
COLUMBUS AFB   PTCLDY    72  72 100 CALM      30.04R
CORINTH        FAIR      68  66  94 CALM      30.06S FOG
GOLDN TRIANGLE PTCLDY    72  66  83 NW5       30.04R
STARKVILLE     FAIR      70  68  94 CALM      30.03S FOG
TUPELO         CLEAR     72  68  87 N3        30.04R
$$

MSZ040-058-221100-
CENTRAL MISSISSIPPI

CITY           SKY/WX    TMP DP  RH WIND       PRES   REMARKS
JACKSON INTL   CLEAR     71  69  93 CALM      30.03R
JACKSON HAWKNS CLEAR     71  67  87 CALM      30.03S
MERIDIAN KEY   MOCLDY    72  69  90 N3        30.02R
MERIDIAN NAS   MOCLDY    72  70  93 CALM      30.02S
RAYMOND        FAIR      68  63  83 NW3       30.04R HAZE
VICKSBURG      CLEAR     68  67  96 N3        30.03S
$$

MSZ059>079-221100-
SOUTH MISSISSIPPI

CITY           SKY/WX    TMP DP  RH WIND       PRES   REMARKS
BROOKHAVEN     FAIR      70  70 100 CALM      30.04S FOG
COLUMBIA       CLOUDY    72  70  94 CALM      30.00S FOG
HATTIESBURG    MOCLDY    75  72  90 CALM      30.01R
MCCOMB         PTCLDY    71  69  93 N3        30.02R
NATCHEZ        CLEAR     68  66  94 CALM      30.03S
PINE BELT      MOCLDY    73  68  83 CALM      30.02S
$$

MSZ080>082-221100-
COASTAL MISSISSIPPI

CITY           SKY/WX    TMP DP  RH WIND       PRES   REMARKS
BILOXI         PTCLDY    77  71  81 VRB1      29.99R
PASCAGOULA     MOCLDY    74  71  91 CALM      29.99R
GULFPORT       CLEAR     76  71  85 CALM      29.99R
$$



USA.gov is the U.S. government's official web portal to all federal, state and local government web resources and services.